Regional Weather Roundup
Issued by NWS New Orleans/Baton Rouge, LA

Home | Current Version | Previous Version | Text Only | Print | Product List | Glossary On
Versions: 1 2 3 4 5 6 7 8 9 10 11 12 13 14 15 16 17 18 19 20 21 22 23 24 25 26 27 28 29 30 31 32 33 34 35 36 37 38 39 40 41 42 43 44 45 46 47 48 49 50
000
ASUS44 KLIX 182210
RWRLIX
NEW ORLEANS REGIONAL WEATHER ROUNDUP
NATIONAL WEATHER SERVICE NEW ORLEANS LA
400 PM CST THU DEC 18 2014

NOTE: "FAIR" INDICATES FEW OR NO CLOUDS BELOW 12,000 FEET WITH NO
      SIGNIFICANT WEATHER AND/OR OBSTRUCTIONS TO VISIBILITY.
      SKY/WX - SKY CONDITION AND SIGNIFICANT WEATHER.
      TMP - AIR TEMPERATURE.     DP    - DEWPOINT TEMPERATURE.
      RH  - RELATIVE HUMIDITY.   PRES  - PRESSURE.
      HI  - HEAT INDEX.          WCI   - WIND CHILL INDEX.

*  THESE STATIONS ARE NOT NWS OR FAA STATIONS AND ARE NOT UNDER
   NWS QUALITY CONTROL.

LAZ038-040-048-061>063-065>067-069-182300-
SOUTHEAST LOUISIANA

CITY           SKY/WX    TMP DP  RH WIND       PRES   REMARKS
N.O. AUDUBON     N/A     66  56  71 MISG        N/A
N.O. INTL ARPT CLOUDY    66  55  67 SE9       30.08F
N.O. LAKEFRONT CLOUDY    66  54  65 SE8       30.09F
N.O. DOWNTOWN* CLOUDY    64  54  68 SE7       30.09F
SLIDELL        CLOUDY    62  52  69 SE7       30.08F
BATON ROUGE    CLOUDY    58  52  80 VRB7      30.10R
BOOTHVILLE     PTSUNNY   68  57  68 E6        30.10S
BELLE CHASSE   CLOUDY    64  56  75 SE9       30.08F
BOGALUSA*      RAIN      59  53  80 N9        30.13R
GALLIANO*      CLOUDY    67  57  71 MISG      30.08F
NEW ROADS*     RAIN      55  55  97 NE6       30.09F
GONZALES*      CLOUDY    64  56  75 N5        30.08R
HAMMOND*       NOT AVBL
HOUMA*           N/A     66  57  72 E12       30.07F
PORT FOURCHON* MOCLDY    66  61  82 SE8       30.11F

$$

MSZ070-080>082-182300-
SOUTHERN MISSISSIPPI

CITY           SKY/WX    TMP DP  RH WIND       PRES   REMARKS
MCCOMB         LGT RAIN  50  48  93 E6        30.12F FOG
GULFPORT       PTSUNNY   59  49  69 SE8       30.11S
BILOXI         PTCLDY    58  49  72 S6        30.12S
PASCAGOULA     MOCLDY    62  46  55 S5        30.13R
STENNIS ARPT*  PTSUNNY   59  46  63 SE5       30.12S

$$

COASTAL OBSERVATIONS
LAKE AND NEARSHORE STATIONS

STATION/POSITION TIME  TEMP    WIND        PRES    WAVE
                       AIR SEA DIR/SP/G            HT/PER
                 (UTC) (F)     (DEG/KT/KT) (MB)    (FT/S)
PASCAGOULA       2200   60     140/  3/  5 1019.9
WAVELAND YACHT   2200   57     120/  6/  7 1019.0
GRAND ISLE       2200   65 62  110/  4/  6 1019.1
SOUTHWEST PASS   2200   72                 1019.2
NEW CANAL        2200   65 58   CALM  /  3 1018.9
SHELL BEACH      2200   62 61  110/ 11/ 13 1019.0

OFFSHORE STATIONS

STATION/POSITION TIME  TEMP    WIND        PRES    WAVE
                       AIR SEA DIR/SP/G            HT/PER
                 (UTC) (F)     (DEG/KT/KT) (MB)    (FT/S)
64 S DAUPHIN ISL 2200   67 74  150/  8/ 10 1018.7    1/ 4

$$



USA.gov is the U.S. government's official web portal to all federal, state and local government web resources and services.